Regional Weather Roundup
Issued by NWS

Home | Current Version | Previous Version | Text Only | Print | Product List | Glossary On
Versions: 1 2 3 4 5 6 7 8 9 10 11 12 13 14 15 16 17 18 19 20 21 22 23 24 25 26 27 28 29 30 31 32 33 34 35 36 37 38 39 40 41 42 43 44 45 46 47 48 49 50
000
ASUS43 KDMX 261603
RWRIA

WEATHER ROUNDUP FOR IOWA
NATIONAL WEATHER SERVICE DES MOINES IA
1100 AM CDT MON SEP 26 2016

NOTE: "FAIR" INDICATES FEW OR NO CLOUDS BELOW 12,000 FEET WITH NO
SIGNIFICANT WEATHER AND/OR OBSTRUCTIONS TO VISIBILITY.

* - THESE STATIONS ARE NOT NWS STATIONS...THUS NOT UNDER NWS
QUALITY CONTROL.  THEY ALSO DO NOT REPORT WEATHER SUCH
AS PRECIPITATION OR FOG.

IAZ001>003-012>014-020>022-031>034-043>046-261700-
   NORTHWEST IOWA

CITY           SKY/WX    TMP DP  RH WIND       PRES   REMARKS
CARROLL *      SUNNY     64  39  39 W16       30.18S
CHEROKEE *     SUNNY     60  40  46 W10       30.17F
DENISON *      SUNNY     63  39  42 W13       30.18F
LE MARS *      SUNNY     63  43  48 W7G14     30.19F
ORANGE CITY *  SUNNY     61  41  48 W14       30.17S
SHELDON *      SUNNY     63  37  39 W14G21    30.14F
SIOUX CITY     SUNNY     65  43  44 NW12      30.20F
SPENCER        SUNNY     61  37  41 W21G29    30.14S
STORM LAKE *   SUNNY     61  39  44 NW16      30.17S
$$

IAZ055>058-069>071-079>083-090>094-261700-
   SOUTHWEST IOWA

CITY           SKY/WX    TMP DP  RH WIND       PRES   REMARKS
ATLANTIC *     SUNNY     64  41  42 W13G20    30.21S
AUDUBON *      SUNNY     64  41  42 W6        30.20F
CLARINDA *       N/A     66  43  42 MISG      30.25S
COUNCIL BLFS * SUNNY     64  43  45 NW10      30.23F
CRESTON *      SUNNY     63  43  48 W12G21    30.22S
HARLAN  *      SUNNY     63  41  45 W14       30.25R
LAMONI         SUNNY     65  43  44 NW14G20   30.21F
RED OAK *      SUNNY     66  41  39 W8G17     30.23S
SHENANDOAH *   SUNNY     66  41  39 NW9G18    30.25S
$$

IAZ047>049-059>061-072>074-084-261700-
   CENTRAL IOWA

CITY           SKY/WX    TMP DP  RH WIND       PRES   REMARKS
AMES           SUNNY     63  42  46 W14G24    30.15S
ANKENY *         N/A    N/A N/A N/A MISG        N/A
BOONE *        SUNNY     63  39  42 W13G21    30.14S
CHARITON *       N/A     64  41  42 W14G21    30.18S
DES MOINES     SUNNY     66  41  40 NW16      30.16S
GRINNELL*      SUNNY     63  39  41 W12G22    30.14S
KNOXVILLE *    SUNNY     64  37  36 W18G24    30.15S
MARSHALLTOWN   SUNNY     62  40  44 NW20G28   30.11F
NEWTON *       SUNNY     64  37  36 W15G25    30.14R
PELLA *        SUNNY     63  42  46 W12G20    30.16S
PERRY *          N/A     66  35  31 W17G24    30.17F
$$

IAZ004>006-015-016-023>025-035-036-261700-
   NORTH CENTRAL IOWA

CITY           SKY/WX    TMP DP  RH WIND       PRES   REMARKS
ALGONA *       SUNNY     61  37  41 W17       30.11F
CLARION *      SUNNY     63  37  39 W17G28    30.11F
ESTHERVILLE    SUNNY     60  36  40 W21G26    30.10F
FORT DODGE *   SUNNY     63  45  51 W14G22    30.14S
MASON CITY     SUNNY     61  38  42 W18G32    30.08S
FOREST CITY *    N/A     63  34  34 NW18G28   30.08S
WEBSTER CITY * SUNNY     63  41  45 W15G21    30.11F
IOWA FALLS *     N/A     62  37  39 W16       30.12S
$$

IAZ007>011-017>019-026>030-037>042-050>054-066-261700-
   NORTHEAST IOWA

CITY           SKY/WX    TMP DP  RH WIND       PRES   REMARKS
CEDAR RAPIDS   SUNNY     64  40  41 W22G29    30.09S
CHARLES CITY * SUNNY     63  37  39 W10G22    30.05F
CLINTON *      SUNNY     66  38  35 W21G29    30.06F
DECORAH *      SUNNY     61  37  41 W9G23     30.00S
DUBUQUE        SUNNY     62  38  40 W25G31    30.04S
MONTICELLO *   SUNNY     64  37  36 W17G25    30.06S
OELWEIN *      SUNNY     63  37  39 W24G31    30.06S
WATERLOO       SUNNY     63  36  36 W20G30    30.07S
$$

IAZ064-065-067-068-078-261700-
   EAST CENTRAL IOWA

CITY           SKY/WX    TMP DP  RH WIND       PRES   REMARKS
DAVENPORT      SUNNY     67  34  29 NW18G29   30.07F
IOWA CITY      SUNNY     65  38  36 W16       30.12S
MUSCATINE *    SUNNY     66  37  34 NW16G25   30.11S
QUAD CITIES    SUNNY     67  37  33 W16G29    30.07F
$$

IAZ062-063-075>077-085>089-095>099-261700-
   SOUTHEAST IOWA

CITY           SKY/WX    TMP DP  RH WIND       PRES   REMARKS
BURLINGTON     SUNNY     66  40  38 NW12G21   30.13F
FAIRFIELD *    SUNNY     66  34  30 NW20G26   30.14S
FORT MADISON * SUNNY     68  37  32 W16       30.15S
KEOKUK *       SUNNY     68  36  30 NW15G25   30.15S
OSKALOOSA *      N/A     66  38  35 W17       30.15S
OTTUMWA        LGT RAIN  65  36  34 W17G25    30.16S
WASHINGTON *     N/A    N/A N/A N/A MISG        N/A
$$

ABBREVIATIONS USED IN REMARKS
   TC - TEMPERATURES IN CELSIUS
  WCI - WIND CHILL INDEX
   HX - HEAT INDEX
  VSB - VISIBILITY
$$





USA.gov is the U.S. government's official web portal to all federal, state and local government web resources and services.